Terminal Aerodrome Forecast
Issued by NWS Burlington, VT

Home | Current Version | Previous Version | Text Only | Print | Product List | Glossary On
Versions: 1 2 3 4 5 6 7 8 9 10 11 12 13 14 15 16 17 18 19 20
000
FTUS41 KBTV 252320
TAFBTV
TAF
KBTV 252320Z 2600/2624 23005KT P6SM SCT035 BKN050
     FM260300 22006KT P6SM SCT150
     FM261700 29009KT P6SM SCT040=

USA.gov is the U.S. government's official web portal to all federal, state and local government web resources and services.